TITAN 3C TRANSTAGE DEB, 1859

Orbit data source: Space-Track

TITAN 3C TRANSTAGE DEB, 1859 is space debris in LEO originally from a launch on Fri, 15 Oct 1965 UTC launched from the Air Force Eastern Test Range (AFETR). Debris objects in space refer to the collection of defunct objects orbiting the Earth. Examples of debris include non-operational satellites, rocket bodies, and fragments generated from explosions, collisions, or faulty payload assembly.

Loading next visibility...
Identifier
1859, 1965-082ES
Orbit
LEO
Country
Flag of USUS
Related business
Manufacturer
Unknown
Mission
Spacecraft
Bus & Motor
Unknown
Mass
Unknown
Launch date (UTC)
1965-10-15 (60 years ago)
Launch vehicle
Unknown
Launch site
Air Force Eastern Test Range (AFETR)
Object type
Payload
Rocket body
Debris
Shape & HBR
Unknown shape, 0.3 m
Radar Cross Section
Medium (>0.1 m² and <1 m²)

Expand to show TLE details & history
Last TLE update: 18 hours ago

TLE from 18 hours ago
0 TITAN 3C TRANSTAGE DEB
1  1859U 65082ES  26035.52897921  .00000688  00000-0  16417-3 0  9997
2  1859  32.1249 214.1258 0067400 277.3409  81.9576 14.49016456167817
Epoch: 2026-02-04T12:41Z
TLE epoch observation values (Epoch: 2026-02-04T12:41:43.803Z)
Latitude
-0.00001°
Longitude
-111.00099°
Altitude
721.137 km
Speed
7.5 km/s
True Right ascension
14h 16m 30s
True Declination
0° 00' 00"
Sunlit
Object was in daylight at epoch
Visualization orbit readout
Latitude
Unknown
Longitude
Unknown
Altitude
Unknown
Speed
Unknown
Apparent Right ascension
Unknown
Apparent Declination
Unknown
Sunlit
N/A
Visualization observer readout
Local Sidereal Time
08:59:36
Azimuth
Unknown
Elevation
Unknown
Doppler factor
Unknown
Orbital elements
Apogee altitude
780.362 km
Perigee altitude
684.512 km
Semi-major axis
7,110.574 km
Eccentricity
0.00674
Inclination
32.1249°
RAAN
214.1258°
Arg. of periapsis
277.3409°
True anomaly
82.72323°
Mean anomaly
81.9576°
Eccentric anomaly
82.34033°
Mean motion
3.61981 °/min
Orbital period
99.45 mins
BSTAR
0.00016417

Documentation

Showing up to 5 results
|